THORAD AGENA D DEB, 4929

Orbit data source: Space-Track

THORAD AGENA D DEB, 4929 is space debris in SSO originally from a launch on Wed, 08 Apr 1970 UTC launched from the Air Force Western Test Range (AFWTR). Debris objects in space refer to the collection of defunct objects orbiting the Earth. Examples of debris include non-operational satellites, rocket bodies, and fragments generated from explosions, collisions, or faulty payload assembly.

Loading next visibility...
Identifier
4929, 1970-025FV
Orbit
SSO
Country
Flag of USUS
Related business
Manufacturer
Unknown
Mission
Spacecraft
Bus & Motor
Unknown
Mass
Unknown
Launch date (UTC)
1970-04-08 (56 years ago)
Launch vehicle
Unknown
Launch site
Air Force Western Test Range (AFWTR)
Object type
Payload
Rocket body
Debris
Shape & HBR
Unknown shape, 0.1 m
Radar Cross Section
Small (<0.1 m²)

Expand to show TLE details & history
Last TLE update: 1 day ago

TLE from 1 day ago
0 THORAD AGENA D DEB
1 04929U 70025FV  25291.81816289  .00000430  00000-0  16729-2 0  9994
2 04929  99.6737 317.8072 0451264 232.9493 310.9029 12.65536889553997
Epoch: 2025-10-18T19:38Z
TLE epoch observation values (Epoch: 2025-10-18T19:38:09.273Z)
Latitude
0.09094°
Longitude
175.74026°
Altitude
1,182.432 km
Speed
7.365 km/s
True Right ascension
09h 11m 17s
True Declination
0° 05' 26"
Sunlit
Object was in daylight at epoch
Visualization orbit readout
Latitude
Unknown
Longitude
Unknown
Altitude
Unknown
Speed
Unknown
Apparent Right ascension
Unknown
Apparent Declination
Unknown
Sunlit
N/A
Visualization observer readout
Local Sidereal Time
18:35:13
Azimuth
Unknown
Elevation
Unknown
Doppler factor
Unknown
Orbital elements
Apogee altitude
1,748.47 km
Perigee altitude
1,046.69 km
Semi-major axis
7,775.717 km
Eccentricity
0.04513
Inclination
99.6737°
RAAN
317.8072°
Arg. of periapsis
232.9493°
True anomaly
306.84822°
Mean anomaly
310.9029°
Eccentric anomaly
308.89044°
Mean motion
3.16543 °/min
Orbital period
113.73 mins
BSTAR
0.0016729
Loading maneuver chart data...
Computing Atmospheric mass density...

Documentation

Showing up to 5 results
|